FW3706 Weather Reports


Display with metric or nautical units.
time (UTC)temp
F
wind
direction
speed
MPH
gust
MPH
rain 1hr
in
rain 24hr
in
rain mn
in
humidity
%
barometer
mb
20260904071531 81 360 2.0 8.0 0.00 0.00 0.00 64 1014.6
20260904071018 81 9 1.0 5.0 0.00 0.00 0.00 64 1014.6
20260904070506 81 360 0.0 5.0 0.00 0.00 0.00 63 1014.6
20260904070029 81 8 1.0 6.0 0.00 0.00 0.00 63 1014.6
20260904065508 82 11 1.0 6.0 0.00 0.00 0.00 63 1014.5
20260904065004 82 8 1.0 5.0 0.00 0.00 0.00 63 1014.5
20260904064535 82 10 2.0 5.0 0.00 0.00 0.00 62 1014.6
20260904064008 82 360 1.0 5.0 0.00 0.00 0.00 62 1014.6
20260904063504 82 10 1.0 5.0 0.00 0.00 0.00 62 1014.6
20260904063028 82 360 1.0 5.0 0.00 0.00 0.00 62 1014.6
20260904062511 82 10 1.0 5.0 0.00 0.00 0.00 62 1014.5
20260904062006 82 360 1.0 5.0 0.00 0.00 0.00 62 1014.5
20260904061539 82 11 1.0 5.0 0.00 0.00 0.00 62 1014.5
20260904061010 82 360 1.0 5.0 0.00 0.00 0.00 61 1014.5
20260904060506 82 360 0.0 5.0 0.00 0.00 0.00 61 1014.5
20260904060030 82 360 0.0 6.0 0.00 0.00 0.00 60 1014.4
20260904055508 82 11 1.0 7.0 0.00 0.00 0.00 60 1014.4
20260904055004 82 360 2.0 7.0 0.00 0.00 0.00 60 1014.4
20260904054535 83 360 1.0 9.0 0.00 0.00 0.00 60 1014.3
20260904054010 83 8 1.0 9.0 0.00 0.00 0.00 60 1014.3
20260904053507 82 360 2.0 6.0 0.00 0.00 0.00 61 1014.3
20260904053033 83 8 1.0 5.0 0.00 0.00 0.00 61 1014.2
20260904052513 83 9 1.0 8.0 0.00 0.00 0.00 60 1014.3
20260904052010 83 8 3.0 8.0 0.00 0.00 0.00 60 1014.3
20260904051530 83 10 3.0 8.0 0.00 0.00 0.00 60 1014.3
20260904051009 83 360 0.0 7.0 0.00 0.00 0.00 61 1014.3
20260904050517 83 360 1.0 7.0 0.00 0.00 0.00 60 1014.3
20260904050028 83 360 2.0 7.0 0.00 0.00 0.00 60 1014.4
20260904045510 83 360 1.0 5.0 0.00 0.00 0.00 58 1014.4
20260904045021 84 360 1.0 8.0 0.00 0.00 0.00 58 1014.4
20260904044529 84 360 1.0 8.0 0.00 0.00 0.00 58 1014.4
20260904044009 84 360 0.0 5.0 0.00 0.00 0.00 58 1014.4
20260904043520 84 10 1.0 5.0 0.00 0.00 0.00 58 1014.5
20260904043029 84 11 0.0 6.0 0.00 0.00 0.00 58 1014.6
20260904042510 84 13 0.0 6.0 0.00 0.00 0.00 58 1014.6
20260904042016 84 9 3.0 7.0 0.00 0.00 0.00 58 1014.4
20260904041535 84 10 3.0 7.0 0.00 0.00 0.00 58 1014.5
20260904041013 84 11 2.0 8.0 0.00 0.00 0.00 58 1014.5
20260904040514 84 9 3.0 8.0 0.00 0.00 0.00 59 1014.5
20260904040028 84 360 1.0 6.0 0.00 0.00 0.00 59 1014.5
20260904035512 84 360 2.0 8.0 0.00 0.00 0.00 58 1014.4
20260904035018 84 8 2.0 8.0 0.00 0.00 0.00 59 1014.2
20260904034531 84 360 3.0 9.0 0.00 0.00 0.00 58 1014.1
20260904034010 84 360 4.0 9.0 0.00 0.00 0.00 58 1014.0
20260904033519 84 360 3.0 8.0 0.00 0.00 0.00 59 1014.1
20260904033027 84 360 1.0 8.0 0.00 0.00 0.00 58 1014.0
20260904032509 84 360 3.0 10.0 0.00 0.00 0.00 58 1014.0
20260904032017 84 10 2.0 10.0 0.00 0.00 0.00 59 1013.9
20260904031528 84 10 1.0 9.0 0.00 0.00 0.00 59 1013.8
20260904031020 84 11 2.0 9.0 0.00 0.00 0.00 58 1013.8
20260904030514 84 360 3.0 9.0 0.00 0.00 0.00 59 1013.6
20260904030028 84 11 3.0 9.0 0.00 0.00 0.00 59 1013.5
20260904025519 84 11 3.0 8.0 0.00 0.00 0.00 59 1013.5
20260904025016 84 6 2.0 8.0 0.00 0.00 0.00 59 1013.4
20260904024530 84 360 3.0 7.0 0.00 0.00 0.00 59 1013.3
20260904024012 84 360 2.0 7.0 0.00 0.00 0.00 59 1013.2
20260904023516 84 11 2.0 8.0 0.00 0.00 0.00 59 1013.2
20260904023030 84 360 3.0 8.0 0.00 0.00 0.00 58 1013.1
20260904022508 85 360 3.0 7.0 0.00 0.00 0.00 58 1013.2
20260904022016 85 360 0.0 4.0 0.00 0.00 0.00 58 1013.2
20260904021536 85 360 0.0 4.0 0.00 0.00 0.00 57 1013.1
20260904021010 85 360 0.0 3.0 0.00 0.00 0.00 57 1013.0
20260904020520 85 360 0.0 4.0 0.00 0.00 0.00 56 1013.0
20260904020027 85 12 0.0 5.0 0.00 0.00 0.00 56 1012.9
20260904015508 85 11 0.0 5.0 0.00 0.00 0.00 56 1012.8
20260904015020 85 360 0.0 6.0 0.00 0.00 0.00 56 1012.7
20260904014533 86 4 2.0 6.0 0.00 0.00 0.00 55 1012.5
20260904014008 86 6 2.0 8.0 0.00 0.00 0.00 54 1012.5
20260904013515 87 4 2.0 8.0 0.00 0.00 0.00 52 1012.5
20260904013032 88 4 1.0 8.0 0.00 0.00 0.00 51 1012.4
20260904012508 88 6 1.0 7.0 0.00 0.00 0.00 50 1012.5
20260904012021 88 6 1.0 8.0 0.00 0.00 0.00 49 1012.3
20260904011534 88 143 2.0 8.0 0.00 0.00 0.00 49 1012.2
20260904011018 89 143 2.0 7.0 0.00 0.00 0.00 49 1012.2
20260904010516 89 118 2.0 6.0 0.00 0.00 0.00 49 1012.2
20260904010034 89 136 1.0 6.0 0.00 0.00 0.00 51 1012.1
20260904005515 89 143 0.0 5.0 0.00 0.00 0.00 52 1012.2
20260904005003 88 124 0.0 5.0 0.00 0.00 0.00 56 1012.2
20260904004504 87 105 0.0 6.0 0.00 0.00 0.00 58 1012.3
20260904004008 87 70 0.0 6.0 0.00 0.00 0.00 59 1012.4
20260904003507 86 106 1.0 5.0 0.00 0.00 0.00 61 1012.4
20260904003004 86 40 0.0 3.0 0.00 0.00 0.00 69 1012.4
20260904002518 85 37 0.0 3.0 0.00 0.00 0.00 70 1012.3
20260904002019 85 37 0.0 3.0 0.00 0.00 0.00 67 1012.2
20260904001536 85 37 0.0 3.0 0.00 0.00 0.00 67 1012.2
20260904001007 85 38 0.0 3.0 0.00 0.00 0.00 66 1012.2
20260904000503 85 40 0.0 2.0 0.00 0.00 0.00 65 1012.3
20260904000010 84 41 0.0 5.0 0.00 0.00 0.00 67 1012.3
20260903235518 83 41 0.0 5.0 0.00 0.00 0.00 69 1012.2
20260903235003 83 51 2.0 5.0 0.00 0.00 0.00 69 1012.3
20260903234505 84 71 2.0 6.0 0.00 0.00 0.00 67 1012.4
20260903234010 85 85 0.0 7.0 0.00 0.00 0.00 64 1012.4
20260903233506 86 76 3.0 7.0 0.00 0.00 0.00 59 1012.4
20260903233004 87 115 3.0 7.0 0.00 0.00 0.00 56 1012.4
20260903232510 88 4 2.0 7.0 0.00 0.00 0.00 54 1012.5
20260903232005 90 113 2.0 6.0 0.00 0.00 0.00 49 1012.5
20260903231504 90 117 2.0 6.0 0.00 0.00 0.00 48 1012.4
20260903231010 92 223 0.0 6.0 0.00 0.00 0.00 45 1012.4
20260903230504 92 223 1.0 6.0 0.00 0.00 0.00 44 1012.2
20260903230031 92 322 0.0 6.0 0.00 0.00 0.00 45 1012.3
20260903225510 92 323 1.0 7.0 0.00 0.00 0.00 44 1012.3
20260903225005 93 303 2.0 7.0 0.00 0.00 0.00 43 1012.4
20260903224528 93 281 0.0 4.0 0.00 0.00 0.00 43 1012.3
20260903224011 92 283 0.0 5.0 0.00 0.00 0.00 45 1012.3
20260903223505 92 281 2.0 5.0 0.00 0.00 0.00 43 1012.3
20260903223030 92 270 3.0 5.0 0.00 0.00 0.00 43 1012.3
20260903222513 93 214 0.0 5.0 0.00 0.00 0.00 41 1012.3
20260903222011 94 216 2.0 5.0 0.00 0.00 0.00 41 1012.4
20260903221528 95 240 1.0 8.0 0.00 0.00 0.00 40 1012.4
20260903221010 95 213 3.0 8.0 0.00 0.00 0.00 39 1012.4
20260903220504 95 232 1.0 4.0 0.00 0.00 0.00 40 1012.6
20260903220030 93 292 0.0 7.0 0.00 0.00 0.00 42 1012.8
20260903215508 93 291 1.0 10.0 0.00 0.00 0.00 42 1012.8
20260903215015 94 305 2.0 10.0 0.00 0.00 0.00 41 1012.9
20260903214528 93 274 3.0 10.0 0.00 0.00 0.00 43 1013.0
20260903214016 94 236 5.0 10.0 0.00 0.00 0.00 41 1013.0
20260903213504 95 268 3.0 8.0 0.00 0.00 0.00 42 1013.0
20260903213029 94 200 2.0 7.0 0.00 0.00 0.00 42 1013.1
20260903212511 93 281 2.0 7.0 0.00 0.00 0.00 42 1013.1
20260903212004 94 239 2.0 5.0 0.00 0.00 0.00 41 1013.2
20260903211528 94 310 1.0 7.0 0.00 0.00 0.00 40 1013.2
20260903211007 95 246 4.0 7.0 0.00 0.00 0.00 40 1013.2
20260903210506 96 212 1.0 5.0 0.00 0.00 0.00 40 1013.3
20260903210030 95 257 0.0 3.0 0.00 0.00 0.00 40 1013.4
20260903205508 93 257 2.0 5.0 0.00 0.00 0.00 42 1013.4
20260903205004 93 259 2.0 5.0 0.00 0.00 0.00 43 1013.5
20260903204532 93 185 0.0 5.0 0.00 0.00 0.00 43 1013.6
20260903204011 93 193 1.0 5.0 0.00 0.00 0.00 41 1013.7
20260903203517 94 212 1.0 4.0 0.00 0.00 0.00 41 1013.8
20260903203027 93 207 0.0 5.0 0.00 0.00 0.00 42 1013.8
20260903202507 93 199 2.0 5.0 0.00 0.00 0.00 42 1013.9
20260903202003 94 252 2.0 5.0 0.00 0.00 0.00 42 1013.9
20260903201530 93 276 0.0 4.0 0.00 0.00 0.00 44 1014.2
20260903201010 92 276 0.0 5.0 0.00 0.00 0.00 45 1014.2
20260903200518 92 277 1.0 5.0 0.00 0.00 0.00 45 1014.2
20260903200034 91 300 2.0 5.0 0.00 0.00 0.00 47 1014.3
20260903195507 91 82 1.0 6.0 0.00 0.00 0.00 45 1014.4
20260903195004 90 94 2.0 6.0 0.00 0.00 0.00 45 1014.6
20260903194530 92 122 2.0 6.0 0.00 0.00 0.00 43 1014.6
20260903194022 93 256 0.0 5.0 0.00 0.00 0.00 42 1014.7
20260903193505 91 259 1.0 5.0 0.00 0.00 0.00 43 1014.8
20260903193031 91 236 1.0 5.0 0.00 0.00 0.00 46 1014.9
20260903192510 90 153 1.0 5.0 0.00 0.00 0.00 46 1015.0
20260903192004 91 200 1.0 5.0 0.00 0.00 0.00 45 1015.1
20260903191528 92 294 0.0 5.0 0.00 0.00 0.00 46 1015.2
20260903191008 90 187 0.0 7.0 0.00 0.00 0.00 47 1015.2
20260903190504 91 185 2.0 7.0 0.00 0.00 0.00 45 1015.3
20260903190027 91 149 0.0 7.0 0.00 0.00 0.00 46 1015.4
20260903185507 90 143 2.0 7.0 0.00 0.00 0.00 46 1015.5
20260903185006 91 103 1.0 5.0 0.00 0.00 0.00 47 1015.6
20260903184533 90 223 1.0 9.0 0.00 0.00 0.00 48 1015.6
20260903184009 89 176 2.0 9.0 0.00 0.00 0.00 49 1015.8
20260903183520 89 117 4.0 7.0 0.00 0.00 0.00 48 1015.8
20260903183027 90 143 1.0 5.0 0.00 0.00 0.00 48 1015.8
20260903182511 90 199 2.0 5.0 0.00 0.00 0.00 48 1015.9
20260903182021 90 162 1.0 4.0 0.00 0.00 0.00 49 1016.0
20260903181533 89 148 0.0 5.0 0.00 0.00 0.00 50 1016.1
20260903181008 88 148 0.0 6.0 0.00 0.00 0.00 50 1016.3
20260903180519 88 158 1.0 6.0 0.00 0.00 0.00 51 1016.3
20260903180032 88 174 1.0 5.0 0.00 0.00 0.00 51 1016.4
20260903175518 88 146 0.0 5.0 0.00 0.00 0.00 52 1016.5
20260903175019 87 122 0.0 5.0 0.00 0.00 0.00 52 1016.5
20260903174528 87 73 0.0 5.0 0.00 0.00 0.00 53 1016.5
20260903174018 87 77 1.0 5.0 0.00 0.00 0.00 53 1016.5
20260903173520 87 131 0.0 5.0 0.00 0.00 0.00 53 1016.6
20260903173037 86 128 1.0 6.0 0.00 0.00 0.00 55 1016.6
20260903172518 86 77 0.0 6.0 0.00 0.00 0.00 55 1016.6
20260903172017 86 94 1.0 4.0 0.00 0.00 0.00 56 1016.5
20260903171540 85 120 0.0 3.0 0.00 0.00 0.00 57 1016.6
20260903171010 85 122 0.0 3.0 0.00 0.00 0.00 58 1016.5
20260903170516 84 120 0.0 5.0 0.00 0.00 0.00 58 1016.5
20260903170037 84 105 0.0 5.0 0.00 0.00 0.00 59 1016.5
20260903165513 84 95 1.0 4.0 0.00 0.00 0.00 59 1016.5
20260903165015 84 119 0.0 4.0 0.00 0.00 0.00 59 1016.6
20260903164544 84 117 1.0 4.0 0.00 0.00 0.00 60 1016.6
20260903164019 84 115 2.0 3.0 0.00 0.00 0.00 60 1016.6
20260903163517 84 113 1.0 3.0 0.00 0.00 0.00 60 1016.6
20260903163036 84 101 0.0 5.0 0.00 0.00 0.00 60 1016.6
20260903162515 83 98 1.0 4.0 0.00 0.00 0.00 59 1016.6
20260903162021 83 107 1.0 4.0 0.00 0.00 0.00 60 1016.6
20260903161529 83 128 1.0 4.0 0.00 0.00 0.00 60 1016.6
20260903161008 83 160 0.0 4.0 0.00 0.00 0.00 60 1016.6
20260903160522 83 163 0.0 4.0 0.00 0.00 0.00 61 1016.6
20260903160043 83 96 0.0 4.0 0.00 0.00 0.00 61 1016.6
20260903155521 83 97 1.0 5.0 0.00 0.00 0.00 61 1016.6
20260903155020 83 84 0.0 5.0 0.00 0.00 0.00 61 1016.5
20260903154529 83 68 2.0 5.0 0.00 0.00 0.00 61 1016.5
20260903154020 83 75 0.0 4.0 0.00 0.00 0.00 61 1016.5
20260903153520 83 300 0.0 0.0 0.00 0.00 0.00 62 1016.4
20260903153028 83 300 0.0 0.0 0.00 0.00 0.00 63 1016.5
20260903152508 82 300 0.0 0.0 0.00 0.00 0.00 63 1016.5
20260903152016 82 300 0.0 0.0 0.00 0.00 0.00 65 1016.5
20260903151529 81 300 0.0 0.0 0.00 0.00 0.00 67 1016.5
20260903151018 80 297 0.0 4.0 0.00 0.00 0.00 68 1016.5
20260903150518 80 297 0.0 4.0 0.00 0.00 0.00 69 1016.5
20260903150057 79 296 1.0 4.0 0.00 0.00 0.00 69 1016.5
20260903145509 79 294 0.0 5.0 0.00 0.00 0.00 70 1016.5
20260903145005 79 293 1.0 6.0 0.00 0.00 0.00 71 1016.6
20260903144538 78 360 3.0 7.0 0.00 0.00 0.00 70 1016.6
20260903144024 78 334 3.0 7.0 0.00 0.00 0.00 71 1016.6
20260903143507 78 312 2.0 6.0 0.00 0.00 0.00 71 1016.6
20260903143030 78 291 2.0 6.0 0.00 0.00 0.00 71 1016.6
20260903142522 78 290 2.0 5.0 0.00 0.00 0.00 71 1016.6
20260903142016 79 360 2.0 5.0 0.00 0.00 0.00 70 1016.6
20260903141536 79 269 1.0 4.0 0.00 0.00 0.00 70 1016.6
20260903141010 79 269 1.0 6.0 0.00 0.00 0.00 69 1016.7
20260903140518 79 267 2.0 8.0 0.00 0.00 0.00 68 1016.6
20260903140038 79 275 2.0 8.0 0.00 0.00 0.00 67 1016.6
20260903135508 79 285 4.0 8.0 0.00 0.00 0.00 66 1016.5
20260903135004 79 275 2.0 6.0 0.00 0.00 0.00 66 1016.5
20260903134538 79 255 1.0 8.0 0.00 0.00 0.00 66 1016.5
20260903134009 79 229 2.0 8.0 0.00 0.00 0.00 65 1016.5
20260903133505 79 252 3.0 6.0 0.00 0.00 0.00 65 1016.3
20260903133033 79 264 2.0 6.0 0.00 0.00 0.00 64 1016.4
20260903132517 79 238 2.0 5.0 0.00 0.00 0.00 64 1016.4
20260903132020 79 360 0.0 5.0 0.00 0.00 0.00 64 1016.3
20260903131528 79 360 0.0 5.0 0.00 0.00 0.00 66 1016.1
20260903131019 79 82 0.0 0.0 0.00 0.00 0.00 69 1016.0
20260903130504 79 81 0.0 0.0 0.00 0.00 0.00 68 1015.9
20260903130028 80 360 0.0 1.0 0.00 0.00 0.00 68 1015.9
20260903125508 80 360 0.0 1.0 0.00 0.00 0.00 67 1016.0
20260903125004 80 81 0.0 1.0 0.00 0.00 0.00 67 1015.9
20260903124525 80 80 0.0 3.0 0.00 0.00 0.00 67 1015.8
20260903124008 80 82 0.0 3.0 0.00 0.00 0.00 67 1015.8
20260903123519 80 79 0.0 3.0 0.00 0.00 0.00 66 1015.7
20260903123033 80 79 0.0 3.0 0.00 0.00 0.00 66 1015.7
20260903122508 80 360 0.0 3.0 0.00 0.00 0.00 66 1015.6
20260903122016 80 77 0.0 6.0 0.00 0.00 0.00 66 1015.5
20260903121529 80 70 0.0 6.0 0.00 0.00 0.00 66 1015.5
20260903121008 80 63 0.0 6.0 0.00 0.00 0.00 67 1015.4
20260903120522 80 99 1.0 5.0 0.00 0.00 0.00 67 1015.4
20260903120027 80 99 0.0 5.0 0.00 0.00 0.00 67 1015.4
20260903115509 80 79 0.0 4.0 0.00 0.00 0.00 67 1015.3
20260903115019 80 66 0.0 4.0 0.00 0.00 0.00 67 1015.3
20260903114530 80 70 0.0 4.0 0.00 0.00 0.00 67 1015.2
20260903114021 80 73 1.0 4.0 0.00 0.00 0.00 67 1015.1
20260903113516 80 70 0.0 7.0 0.00 0.00 0.00 67 1015.2
20260903113056 80 360 1.0 7.0 0.00 0.00 0.00 67 1015.1
20260903112511 80 66 1.0 5.0 0.00 0.00 0.00 67 1015.0
20260903112014 80 360 1.0 5.0 0.00 0.00 0.00 68 1015.1
20260903111527 80 64 2.0 5.0 0.00 0.00 0.00 68 1015.1
20260903111008 80 52 0.0 5.0 0.00 0.00 0.00 68 1015.2
20260903110517 80 360 1.0 5.0 0.00 0.00 0.00 68 1015.2
20260903110030 80 72 0.0 5.0 0.00 0.00 0.00 68 1015.2
20260903105513 80 360 1.0 5.0 0.00 0.00 0.00 67 1015.2
20260903105017 80 64 0.0 5.0 0.00 0.00 0.00 67 1015.2
20260903104527 80 68 1.0 6.0 0.00 0.00 0.00 67 1015.2
20260903104010 80 70 2.0 6.0 0.00 0.00 0.00 67 1015.2
20260903103516 80 360 2.0 5.0 0.00 0.00 0.00 67 1015.2
20260903103028 80 360 2.0 5.0 0.00 0.00 0.00 67 1015.3
20260903102508 80 360 2.0 5.0 0.00 0.00 0.00 67 1015.3
20260903102013 80 360 1.0 4.0 0.00 0.00 0.00 66 1015.3
20260903101536 80 360 0.0 4.0 0.00 0.00 0.00 66 1015.3
20260903101012 80 97 1.0 4.0 0.00 0.00 0.00 66 1015.3
20260903100519 81 360 0.0 7.0 0.00 0.00 0.00 66 1015.4
20260903100034 81 360 1.0 7.0 0.00 0.00 0.00 65 1015.4
20260903095507 81 360 1.0 6.0 0.00 0.00 0.00 66 1015.4
20260903095016 81 360 1.0 6.0 0.00 0.00 0.00 66 1015.4
20260903094528 81 360 2.0 5.0 0.00 0.00 0.00 66 1015.3
20260903094008 81 77 1.0 5.0 0.00 0.00 0.00 66 1015.3
20260903093516 81 360 0.0 5.0 0.00 0.00 0.00 66 1015.3
20260903093031 81 68 0.0 5.0 0.00 0.00 0.00 66 1015.3
20260903092510 81 63 1.0 5.0 0.00 0.00 0.00 66 1015.4
20260903092016 81 360 0.0 5.0 0.00 0.00 0.00 66 1015.4
20260903091530 81 360 0.0 3.0 0.00 0.00 0.00 65 1015.4
20260903091008 81 360 0.0 1.0 0.00 0.00 0.00 65 1015.3
20260903090518 81 65 0.0 1.0 0.00 0.00 0.00 65 1015.3
20260903090029 81 360 0.0 1.0 0.00 0.00 0.00 65 1015.4
20260903085508 82 360 0.0 1.0 0.00 0.00 0.00 65 1015.4
20260903085019 82 65 0.0 3.0 0.00 0.00 0.00 64 1015.4
20260903084538 82 63 0.0 3.0 0.00 0.00 0.00 64 1015.4
20260903084009 82 65 0.0 2.0 0.00 0.00 0.00 64 1015.5
20260903083516 82 360 0.0 2.0 0.00 0.00 0.00 63 1015.4
20260903083031 82 360 0.0 0.0 0.00 0.00 0.00 63 1015.4
20260903082508 82 360 0.0 0.0 0.00 0.00 0.00 63 1015.4
20260903082018 82 360 0.0 0.0 0.00 0.00 0.00 62 1015.5
20260903081530 82 360 0.0 0.0 0.00 0.00 0.00 62 1015.5
20260903081009 82 65 0.0 1.0 0.00 0.00 0.00 61 1015.5
20260903080516 82 63 0.0 1.0 0.00 0.00 0.00 61 1015.6
20260903080028 82 65 0.0 1.0 0.00 0.00 0.00 61 1015.6
20260903075509 82 65 0.0 1.0 0.00 0.00 0.00 61 1015.6
20260903075016 82 63 0.0 1.0 0.00 0.00 0.00 60 1015.6
20260903074532 82 63 0.0 0.0 0.00 0.00 0.00 60 1015.6
20260903074010 82 65 0.0 0.0 0.00 0.00 0.00 60 1015.6
20260903073515 82 65 0.0 0.0 0.00 0.00 0.00 60 1015.6
20260903073029 82 360 0.0 0.0 0.00 0.00 0.00 60 1015.6
20260903072519 82 65 0.0 1.0 0.00 0.00 0.00 60 1015.6
20260903072018 82 360 0.0 1.0 0.00 0.00 0.00 60 1015.5